Location: Montr�al
(45.5000°N, 73.5830°W)
Time: 20:23:13
(UTC-04:00)

Cosmos 1151 Rocket - Visible Passes

Search period start: 20 August 2014 00:00
Search period end: 30 August 2014 00:00
Orbit: 594 x 619 km, 82.5° (Epoch: 19 August)

Date Brightness Start Highest point End Pass type
(mag) Time Alt. Az. Time Alt. Az. Time Alt. Az.
20 Aug 5.4 00:55:04 18° NE 00:55:04 18° NE 00:56:34 10° NNE visible
20 Aug 4.9 02:31:58 23° NW 02:31:58 23° NW 02:34:16 10° NNW visible
21 Aug 5.2 01:08:31 23° NE 01:08:31 23° NE 01:10:21 10° NNE visible
21 Aug 5.3 02:45:25 16° NW 02:45:25 16° NW 02:47:08 10° NNW visible
22 Aug 5.0 01:21:57 26° NNE 01:21:57 26° NNE 01:23:55 10° NNE visible
22 Aug 5.6 02:58:51 11° NW 02:58:51 11° NW 02:59:20 10° NW visible
23 Aug 5.0 01:35:23 26° N 01:35:23 26° N 01:37:20 10° N visible
24 Aug 5.8 00:11:54 12° NE 00:11:54 12° NE 00:12:19 10° NE visible
24 Aug 5.2 01:48:48 22° NNW 01:48:48 22° NNW 01:50:35 10° N visible
25 Aug 5.6 00:25:18 16° NE 00:25:18 16° NE 00:26:17 10° NNE visible
25 Aug 5.4 02:02:12 17° NNW 02:02:12 17° NNW 02:03:38 10° NNW visible
26 Aug 5.5 00:38:42 19° NNE 00:38:42 19° NNE 00:39:58 10° NNE visible
26 Aug 5.7 02:15:36 12° NW 02:15:36 12° NW 02:16:21 10° NNW visible
27 Aug 5.5 00:52:06 20° N 00:52:06 20° N 00:53:29 10° N visible
28 Aug 5.5 01:05:29 19° N 01:05:29 19° N 01:06:50 10° N visible
28 Aug 5.9 23:41:58 11° NE 23:41:58 11° NE 23:42:05 10° NE visible
29 Aug 5.7 01:18:51 17° NNW 01:18:51 17° NNW 01:20:00 10° N visible
29 Aug 5.7 23:55:20 14° NNE 23:55:20 14° NNE 23:55:56 10° NNE visible
